RH
21 31 41 43 42 38 34 35 35 33 32 35 38 39 39 37 31 35 45 41 37 42 38 33 33 27 22 19 18 24 29 29 29 28 26 26 26 29 31 32 33 32 32 33 34 35 34 34 31 27 24 26 29 29 28 29 29 28 28 23 18 19 19 17 16 14 13 15 16 16 17 17 18 19 19 20 19 21 22 23 23 24 24 25 28 29
21 39 47 40 34 32 32 33 33 36 37 35 37 39 35 32 26 30 44 40 34 40 34 24 24 20 16 15 13 17 26 30 28 26 26 25 24 26 27 29 30 30 31 30 31 34 33 33 30 23 16 17 21 23 23 23 23 23 22 18 13 13 15 14 14 14 14 16 17 17 18 18 20 21 22 23 23 23 24 24 25 26 28 30 32 33
30 42 39 29 29 31 30 31 33 37 40 38 37 34 29 26 22 29 44 38 29 38 34 23 23 21 16 15 12 13 18 23 26 25 24 24 24 25 25 27 28 29 30 30 30 31 30 30 29 21 13 12 15 17 18 18 17 16 15 13 12 13 14 14 15 15 16 17 18 18 19 20 22 24 27 30 30 30 30 31 33 34 36 37 38 38
39 38 30 27 33 33 29 29 33 37 39 39 33 25 25 28 24 27 38 34 28 33 31 27 35 33 25 22 16 13 12 13 20 24 22 23 23 24 24 25 27 29 29 30 29 28 28 27 24 17 11 10 13 14 13 13 12 11 11 11 12 13 14 15 16 16 17 18 19 19 20 21 23 25 29 31 33 35 37 39 41 42 43 41 41 41
43 33 28 32 34 33 33 34 35 34 33 33 29 22 21 26 27 25 28 30 25 28 35 38 44 38 28 27 21 15 14 11 17 24 24 23 23 23 24 24 26 28 29 29 28 28 27 22 16 10 8 10 10 11 10 9 9 9 10 12 12 14 15 16 16 16 18 18 19 20 20 22 25 29 33 35 36 37 37 39 40 41 41 39 38 38
40 30 30 38 35 31 36 37 34 29 23 24 31 32 24 20 26 28 29 33 26 27 44 45 37 28 18 16 15 15 16 13 18 26 25 24 24 23 24 25 26 27 28 29 28 29 25 16 11 6 6 9 8 9 8 8 9 10 11 12 13 15 16 16 16 16 17 18 20 21 23 27 30 31 30 31 31 31 32 34 36 38 39 39 38 38
32 27 33 40 36 35 40 39 34 27 19 22 33 39 31 24 29 33 34 40 30 21 40 47 33 26 20 12 11 17 22 19 22 30 27 24 25 25 25 25 25 26 28 28 28 30 27 20 13 7 5 7 7 7 8 9 10 11 13 14 14 15 16 16 17 16 17 19 20 23 28 31 29 25 23 26 30 32 34 37 41 45 49 50 48 44
34 29 34 38 35 38 39 34 32 25 18 27 37 36 33 31 34 38 39 42 33 19 33 44 33 31 33 21 14 21 28 27 26 30 29 26 25 25 26 26 25 26 27 28 29 30 28 25 19 11 4 5 7 7 9 10 12 12 13 15 16 15 16 17 17 18 19 20 23 28 30 27 22 20 23 27 30 33 36 40 44 48 51 54 52 48
38 34 35 37 35 35 32 29 32 26 23 35 40 35 35 38 39 42 43 38 30 27 34 39 37 41 41 24 16 25 29 29 29 27 29 29 27 26 27 27 27 26 27 27 29 30 28 26 25 21 12 6 6 8 10 11 12 13 13 14 16 16 17 18 18 19 19 22 28 29 24 20 19 22 24 25 27 30 34 37 40 41 42 44 45 47
41 41 37 35 32 30 31 33 36 32 32 38 41 44 48 50 49 46 45 35 29 36 38 34 36 38 34 17 13 24 24 24 25 23 26 27 25 26 26 27 29 27 28 29 29 30 29 27 27 28 25 16 9 9 11 11 12 13 13 14 16 17 18 19 18 18 22 27 28 23 19 19 21 23 23 26 29 31 33 35 37 39 40 42 45 48
45 44 36 36 33 28 30 37 39 35 36 39 43 49 48 50 50 44 39 31 31 43 38 30 29 26 24 15 10 19 20 19 20 16 19 23 23 25 24 25 28 28 29 30 30 31 30 29 29 32 34 28 19 14 14 14 13 12 13 15 16 18 19 19 19 24 28 27 22 18 19 20 22 24 26 29 32 34 37 38 39 41 43 45 48 51
49 44 35 39 36 28 31 37 40 38 36 39 39 34 29 32 36 33 29 28 38 45 31 23 26 23 23 16 9 14 14 15 20 16 14 19 20 21 22 23 25 27 30 30 31 32 31 32 34 36 38 36 29 23 20 18 16 15 15 16 18 19 21 23 27 29 26 20 17 18 20 21 23 26 29 32 34 37 39 40 42 43 44 46 50 54
47 46 41 43 37 31 31 30 37 44 40 38 31 23 26 29 27 28 30 33 39 37 23 18 23 22 20 14 9 10 9 12 19 16 12 13 14 16 18 21 23 26 29 30 31 32 33 34 36 38 40 38 36 32 29 27 24 23 23 22 22 24 27 29 29 25 19 16 18 20 21 23 25 28 31 33 36 39 41 42 42 42 44 48 51 53
37 45 46 42 31 33 33 17 22 37 37 34 24 17 25 26 24 29 27 28 32 27 18 14 17 22 18 11 11 9 7 10 11 9 8 8 9 13 16 20 23 26 28 30 32 32 34 36 37 38 39 38 38 37 35 34 33 32 31 30 29 29 30 29 24 18 16 18 20 21 23 25 27 30 33 36 40 42 41 39 37 36 38 41 43 45
24 34 41 37 27 34 37 21 20 27 27 27 17 12 22 24 26 31 27 29 36 30 20 15 21 29 21 12 15 13 9 8 6 7 8 8 10 12 17 22 25 28 31 33 35 34 36 38 38 39 39 39 39 38 37 36 36 35 33 32 31 30 27 22 18 16 17 20 21 23 25 26 30 33 37 41 42 41 38 32 26 22 20 22 27 32
17 24 39 43 33 34 35 28 25 21 17 18 13 16 27 24 22 29 28 26 32 35 28 23 26 26 15 10 13 14 13 11 10 13 12 11 13 15 19 23 24 27 31 34 38 39 40 41 41 41 40 40 40 39 38 36 34 33 32 30 28 25 21 17 16 17 19 21 23 25 27 30 34 38 41 43 41 37 30 20 12 9 9 11 14 21
18 25 44 45 34 35 34 32 33 26 19 15 16 24 29 23 17 26 31 23 27 39 33 24 25 19 12 14 15 13 15 16 17 20 18 17 20 23 24 24 23 25 27 30 33 35 39 41 42 43 42 42 41 39 37 34 32 31 29 26 23 20 18 17 17 18 21 23 25 27 31 34 37 40 43 42 38 29 18 8 5 5 7 9 12 22
20 27 44 42 36 41 38 35 36 35 28 19 22 28 26 24 19 20 30 33 37 44 32 22 27 25 20 21 19 15 15 17 20 23 22 20 24 27 25 22 24 27 26 28 30 32 35 37 39 41 43 43 41 38 35 32 30 28 25 22 19 17 17 17 18 20 23 26 28 31 34 38 41 42 43 40 31 18 7 4 6 6 8 9 13 23
21 24 36 41 43 45 41 37 34 36 35 26 27 30 25 31 31 23 29 36 40 43 35 27 27 28 27 25 21 20 21 22 23 24 24 24 26 26 21 19 24 29 29 29 29 30 31 33 36 39 41 42 40 37 33 30 27 24 22 19 18 19 19 20 22 23 26 29 32 35 38 41 44 43 41 33 20 9 4 6 7 7 9 11 13 18
19 20 30 38 42 40 38 38 34 38 44 35 29 28 23 27 33 31 33 37 39 41 39 33 27 28 27 22 21 25 29 30 25 24 29 31 27 20 16 16 21 25 26 26 26 28 28 31 35 38 39 39 37 34 30 26 23 21 19 19 20 21 21 22 25 27 29 32 35 39 42 44 44 42 36 23 10 6 6 8 9 9 10 10 11 14
20 17 23 35 41 36 33 33 27 31 44 42 37 36 32 29 29 31 35 37 38 39 40 37 31 27 21 16 19 23 26 30 26 25 35 35 24 16 14 15 17 21 23 23 25 26 27 32 36 38 40 38 34 31 27 23 21 20 20 21 22 23 23 25 27 29 32 34 38 42 45 45 43 39 29 15 7 7 8 9 10 10 10 11 12 13
22 17 18 27 32 27 28 31 27 29 35 37 39 39 37 37 37 37 38 37 36 36 39 41 35 28 19 14 16 16 19 25 23 23 31 28 17 14 14 13 15 19 21 23 25 27 28 32 35 38 38 36 32 28 24 22 22 21 22 23 24 25 27 28 30 32 35 37 41 45 46 46 42 34 21 11 8 10 11 12 11 10 11 13 13 15
22 20 22 22 19 17 24 30 33 36 34 32 34 30 33 41 40 36 38 42 45 43 39 43 42 30 19 16 18 18 18 17 14 16 21 18 13 14 14 12 15 18 20 25 29 31 32 33 36 38 37 34 31 26 24 23 22 23 24 26 27 28 29 31 33 35 38 41 44 46 47 45 40 29 16 9 11 13 13 12 11 12 14 15 16 18
22 24 29 28 19 16 26 31 30 33 32 30 30 26 30 39 38 37 39 39 47 48 40 43 44 31 23 23 22 19 17 13 11 13 15 15 13 13 14 13 16 18 21 29 33 34 36 38 40 40 36 32 29 26 25 25 24 26 27 28 30 30 32 34 35 38 41 44 47 48 48 44 36 24 13 9 13 16 14 11 12 14 16 17 18 19
26 26 29 34 29 24 28 30 30 33 30 25 25 24 27 32 37 44 44 39 43 42 36 39 39 27 26 29 23 17 16 15 14 12 12 13 11 10 13 14 16 19 23 28 32 35 40 41 40 37 33 30 28 27 27 27 27 28 28 29 31 33 35 37 38 41 44 47 50 50 48 43 33 20 11 11 16 16 13 12 15 17 17 19 20 21
33 29 26 32 33 29 28 26 30 37 33 26 24 23 26 33 40 43 41 44 48 40 33 37 35 24 23 25 22 19 18 18 17 14 12 12 12 11 12 15 17 20 22 24 27 32 36 39 39 38 35 32 30 29 29 29 30 30 31 32 34 36 38 39 41 44 47 50 52 51 48 41 28 15 11 14 16 14 14 16 18 18 18 21 21 22
41 37 28 28 27 26 24 23 26 29 28 30 30 29 32 38 43 43 40 42 44 39 35 36 34 30 26 23 22 23 23 23 21 19 16 15 15 15 14 15 18 20 21 22 25 30 34 38 41 41 38 35 33 33 33 32 32 31 32 35 37 40 42 42 44 47 50 54 53 51 48 38 22 13 13 16 15 15 17 20 20 20 21 22 22 22
45 45 37 34 31 26 21 20 24 24 22 23 27 31 37 43 49 52 46 37 36 39 36 28 30 37 33 24 24 25 22 22 21 20 19 18 18 18 17 16 17 20 22 25 28 31 33 37 40 41 41 39 38 37 36 35 34 34 35 37 40 43 43 44 47 50 53 55 54 52 47 33 18 12 14 15 15 18 21 21 21 22 22 23 23 23
47 50 42 40 41 33 26 24 25 25 24 24 26 29 33 42 54 57 48 36 34 38 33 23 25 32 28 22 21 21 20 21 21 21 21 21 20 20 18 17 17 20 23 26 28 29 31 33 35 38 40 40 40 40 38 38 37 37 39 41 43 46 46 46 50 53 56 57 55 53 43 27 15 13 14 15 18 22 23 22 23 23 23 24 25 25
45 52 49 48 49 41 36 35 33 33 32 32 33 31 26 30 41 48 47 39 36 37 31 26 27 27 23 21 21 20 21 22 22 22 22 21 20 19 19 19 18 19 21 24 25 26 28 30 32 35 38 39 40 40 39 38 38 38 40 42 45 48 48 50 53 55 57 58 56 51 38 22 14 15 16 19 22 23 23 23 24 24 24 25 26 27
42 55 58 52 53 47 38 37 39 38 37 35 34 31 27 27 30 36 42 41 42 44 37 32 38 36 27 25 26 24 23 23 24 23 21 20 19 18 19 19 19 19 20 21 23 25 26 28 31 35 37 38 38 38 39 39 38 40 41 43 46 48 50 53 55 57 58 59 57 49 32 18 14 17 20 22 24 24 24 25 25 26 26 26 27 27
48 55 54 47 51 45 29 30 36 32 33 38 37 31 29 30 32 33 35 37 42 49 48 48 53 47 35 30 30 26 24 24 24 22 20 20 20 19 19 19 20 20 20 20 22 24 25 27 29 32 33 35 37 38 39 39 40 41 42 44 47 49 51 55 58 60 60 60 59 47 26 15 17 21 23 25 25 25 25 26 26 27 27 27 27 27
61 60 55 51 53 43 29 31 36 37 43 46 40 35 32 29 30 30 29 31 33 41 52 57 51 41 33 31 30 27 27 27 26 24 23 23 22 21 20 20 20 20 20 21 22 23 25 27 27 29 31 34 36 37 38 39 40 41 42 45 49 51 52 56 60 62 62 63 58 40 20 16 21 23 25 26 26 26 27 27 27 28 28 28 28 28
70 65 58 50 48 47 39 36 43 53 57 46 32 33 33 28 31 32 31 34 33 35 43 45 39 36 35 34 34 33 32 31 29 28 27 26 25 24 23 22 22 22 22 22 23 24 25 27 28 31 34 36 37 38 40 42 42 44 45 48 51 52 55 59 62 64 65 63 52 31 18 19 23 24 25 27 27 28 28 28 28 28 29 29 29 28
74 74 65 52 52 56 49 50 66 68 52 36 30 29 28 27 31 34 34 37 40 41 43 45 43 42 40 38 37 36 34 33 33 33 32 30 27 25 24 24 24 24 24 24 24 25 26 27 30 33 36 39 41 42 43 45 45 47 49 51 52 54 58 62 65 66 66 60 43 25 19 22 23 24 26 27 28 29 29 29 29 29 29 30 29 28
71 76 67 56 59 65 60 63 71 56 35 31 30 26 29 32 33 39 44 47 49 49 51 53 51 46 43 42 40 40 39 38 37 37 35 32 28 26 27 28 27 27 27 26 27 27 27 27 30 34 37 39 42 44 45 46 47 48 50 52 54 57 62 66 67 68 67 56 37 23 21 23 24 25 27 28 29 30 29 30 30 30 30 30 30 29
60 67 66 64 64 67 68 65 57 46 42 41 31 27 34 36 35 44 52 54 57 60 58 58 57 52 50 50 47 45 44 43 44 42 36 32 31 33 34 33 33 33 32 31 30 30 29 29 32 36 39 40 42 44 46 47 47 49 50 52 55 60 65 69 69 70 67 51 31 23 24 25 26 27 28 29 30 30 30 31 31 31 31 30 30 29
57 58 62 70 68 63 68 72 67 64 63 57 47 41 39 34 33 41 49 55 65 71 67 65 67 64 61 60 55 49 50 56 58 48 38 37 39 41 41 38 37 37 35 34 34 33 32 32 33 37 39 41 44 45 46 47 47 49 51 54 58 64 69 71 72 72 63 43 27 24 26 27 27 28 29 30 30 31 32 32 32 32 32 32 31 31
65 60 59 72 76 69 73 80 75 67 67 68 64 54 46 43 40 41 54 68 75 76 73 73 75 74 70 68 63 58 63 73 69 53 46 52 56 54 51 46 42 40 38 37 36 35 36 35 36 39 40 42 45 46 47 49 50 52 55 59 65 70 72 73 74 70 54 35 27 28 29 28 29 29 30 31 31 32 33 33 33 33 33 33 32 32
79 75 71 80 83 75 78 82 69 60 69 76 68 59 57 53 45 52 74 87 85 79 76 77 80 78 75 74 71 69 73 78 73 64 63 68 69 67 63 56 51 47 42 39 39 41 42 41 41 42 42 44 48 50 52 53 55 58 62 66 72 75 75 76 74 62 45 32 30 31 30 29 30 29 30 32 33 34 34 34 35 34 34 34 34 34
91 88 80 83 84 77 80 85 72 67 81 83 69 63 62 53 53 74 95 96 87 81 78 79 82 81 79 80 80 79 78 78 77 77 77 78 77 74 70 68 67 61 53 48 50 53 54 52 49 48 49 51 54 56 57 58 61 65 69 73 76 77 78 77 68 53 40 33 32 33 31 30 30 30 32 33 34 35 35 35 36 36 36 36 36 35
92 92 84 85 88 80 77 81 79 80 88 85 70 62 62 64 76 94 97 89 85 85 83 83 84 83 83 84 84 84 84 83 84 85 84 84 83 80 78 78 78 75 67 62 63 66 65 61 57 56 58 60 61 61 63 66 68 72 75 77 79 80 80 75 62 48 40 36 34 34 32 31 30 31 33 34 35 36 36 36 38 37 37 37 36 35
85 88 87 84 83 81 80 85 92 95 91 83 74 69 72 82 93 97 92 85 83 85 87 87 85 85 87 87 87 87 87 86 87 87 86 86 84 83 83 84 84 82 77 72 71 72 70 66 63 63 64 65 67 68 70 73 75 77 79 81 82 83 81 71 56 46 41 38 37 35 33 31 31 33 34 35 36 37 37 38 38 38 37 38 37 36
81 85 91 86 81 88 93 91 92 96 90 80 77 81 86 90 91 91 91 87 82 83 87 86 84 84 87 88 88 88 87 86 86 86 86 87 87 86 85 86 89 90 85 81 78 77 74 70 69 70 70 71 73 75 76 77 79 81 83 84 86 86 80 67 54 46 42 40 39 36 33 32 33 34 35 36 37 38 38 39 39 39 39 38 38 37
85 86 92 91 84 85 88 83 81 84 81 73 72 79 87 87 83 82 83 82 81 82 83 83 83 83 84 86 87 87 87 87 87 87 87 87 88 89 89 91 95 96 94 92 89 84 79 76 74 75 76 77 79 80 80 81 84 86 87 88 89 87 78 66 56 48 44 42 39 36 33 33 34 35 37 38 39 39 39 40 40 40 40 40 39 37
76 79 85 84 77 72 69 68 69 70 68 65 66 72 76 75 73 74 76 77 79 80 81 82 83 83 84 85 85 85 86 86 86 88 89 90 91 91 92 95 99 99 99 99 97 92 87 83 81 81 82 83 84 84 84 86 88 90 91 92 92 87 77 66 58 51 46 43 40 36 35 34 35 37 38 39 40 40 41 42 42 41 41 41 39 38
67 73 76 70 71 78 73 61 56 61 63 62 64 67 69 70 72 73 75 77 77 79 82 82 84 85 85 85 84 85 86 87 88 91 93 95 97 96 95 97 100 100 100 100 100 98 94 89 87 87 87 88 88 88 90 92 93 94 95 96 95 88 78 68 59 52 47 43 40 37 35 36 36 38 39 40 41 42 42 43 44 44 42 40 38 38
76 74 73 68 69 73 66 52 50 60 64 62 65 68 69 72 74 74 76 79 79 81 83 84 86 87 87 86 87 89 91 93 95 97 99 99 99 98 98 99 100 100 100 100 100 100 98 96 94 93 94 94 93 94 95 97 97 98 99 100 96 87 77 70 62 53 47 43 40 38 36 37 38 39 40 41 42 43 44 45 46 46 43 40 38 39
79 73 72 73 70 64 57 54 62 72 71 64 66 71 71 72 76 77 79 80 81 83 86 87 88 89 89 91 91 92 95 98 98 99 101 100 100 100 100 100 100 100 100 100 100 100 100 100 99 99 99 99 98 99 99 100 101 100 100 101 95 83 75 70 63 54 48 44 41 39 38 38 39 40 41 43 44 45 46 47 47 46 42 38 38 39
80 80 75 77 82 78 69 67 77 88 86 74 70 73 73 74 77 78 78 80 83 87 89 90 91 91 92 94 95 96 99 100 99 100 100 100 100 100 100 100 100 100 100 100 100 100 100 100 100 100 101 100 100 101 100 100 101 100 101 101 93 80 73 69 62 53 48 44 42 40 39 39 40 41 43 45 46 48 49 48 47 46 43 40 38 38
82 85 82 86 93 88 76 74 83 92 87 76 72 74 76 76 76 77 80 84 87 90 92 94 96 96 96 98 99 100 101 101 100 100 100 100 100 100 100 100 100 100 100 100 100 100 100 100 100 100 100 101 100 100 100 100 100 101 102 98 88 76 70 67 60 52 47 44 43 42 41 41 42 43 45 46 48 49 49 47 45 43 43 44 43 41
Wind_Speed
1 1 1 1 2 3 4 4 3 4 4 4 5 4 5 5 4 2 4 1 1 1 5 6 9 11 11 11 9 18 23 21 20 20 21 22 23 25 26 26 27 28 28 26 25 24 24 26 27 27 27 27 26 26 25 25 24 23 22 22 21 21 21 20 20 19 17 16 16 16 15 15 15 16 17 18 18 18 19 20 21 22 22 22 22 23
0 1 1 3 2 3 3 4 4 4 4 4 4 5 5 5 3 2 4 1 2 0 5 6 9 12 11 11 12 14 16 17 21 21 21 24 24 25 26 26 27 26 25 24 24 24 24 25 26 26 27 27 27 26 25 25 24 23 23 22 21 21 22 21 19 18 18 17 17 16 16 16 16 17 17 18 19 20 21 22 23 24 24 24 25 26
1 1 3 3 2 1 0 2 3 3 4 4 4 4 4 3 3 2 4 2 2 2 5 6 6 11 12 13 14 13 13 18 26 27 25 26 25 25 26 26 27 25 24 25 25 26 26 27 28 28 27 26 26 26 25 25 24 24 23 23 23 22 22 21 20 20 19 18 18 17 17 17 17 17 17 18 20 21 23 24 25 26 27 28 28 28
2 2 3 2 2 2 0 1 3 3 3 5 4 4 3 3 3 1 0 1 2 4 6 5 6 9 13 13 13 17 22 21 24 28 27 26 27 28 28 28 28 28 27 28 27 28 29 30 30 29 28 27 26 26 26 26 25 25 25 25 25 24 23 22 21 21 20 19 19 19 19 19 19 19 20 21 22 23 24 25 26 27 27 27 26 25
1 2 2 0 1 2 1 1 2 3 4 4 2 2 2 2 1 3 3 5 6 6 6 3 5 7 8 9 8 11 18 17 18 23 23 24 26 27 27 28 29 30 30 31 30 30 31 32 31 30 28 28 29 29 29 28 28 28 27 27 26 25 24 23 23 22 22 21 21 21 20 20 20 21 22 23 23 23 24 24 24 24 24 23 23 22
2 2 1 1 2 1 2 3 1 0 4 2 0 3 1 1 3 4 6 6 5 4 3 1 3 5 4 6 7 3 7 10 13 17 18 22 24 24 27 28 29 30 30 31 32 32 32 32 31 30 30 31 31 31 31 30 29 29 28 28 27 26 25 24 24 24 23 23 22 22 22 22 22 22 21 21 21 20 20 21 21 21 22 23 24 23
2 3 1 1 2 1 2 4 1 3 3 2 2 4 4 3 3 4 6 3 3 4 3 4 2 5 6 7 9 5 6 7 9 10 13 19 22 25 28 28 29 30 30 31 32 33 32 32 32 32 33 34 34 33 31 30 31 30 29 28 28 27 27 27 26 25 24 23 23 23 23 22 21 21 20 19 19 20 20 20 20 21 22 24 25 25
2 4 2 1 2 2 3 4 1 3 1 2 3 3 2 3 4 4 5 3 4 6 4 6 4 4 6 7 9 7 7 6 7 7 10 16 22 25 28 29 30 31 31 32 32 32 32 33 33 33 34 35 34 33 32 32 32 32 31 30 29 28 28 28 27 26 26 25 24 24 23 22 21 20 20 20 21 22 22 22 22 22 22 23 24 24
0 3 4 3 3 3 2 0 1 1 1 1 2 2 2 4 5 5 4 4 5 5 5 5 5 2 5 6 4 4 6 7 9 10 10 16 23 26 28 30 31 31 32 33 33 33 32 33 34 33 33 34 34 34 35 35 34 33 32 31 30 30 30 29 28 28 27 26 26 24 22 22 21 22 22 22 23 23 23 23 23 23 23 24 24 24
1 1 1 2 2 2 1 3 2 1 1 0 2 2 4 5 5 4 3 4 4 4 7 5 6 2 6 5 2 2 4 7 9 9 9 17 25 28 29 31 31 32 32 33 34 34 33 32 33 34 33 34 35 36 37 36 35 34 34 33 32 31 31 31 30 30 28 26 25 23 23 23 23 23 24 24 24 24 24 24 24 24 24 24 24 24
1 1 1 1 2 2 4 2 1 1 1 1 2 3 5 5 4 3 4 3 3 3 6 3 5 2 3 4 4 4 5 7 8 7 8 14 22 27 28 29 30 32 33 34 34 34 33 33 33 34 35 36 37 37 38 37 36 35 35 34 34 33 33 33 31 30 28 25 24 24 24 24 24 25 25 24 24 23 24 24 25 25 25 25 24 23
1 1 0 2 3 3 3 2 1 1 0 1 2 3 4 2 2 2 3 2 2 4 3 1 1 0 3 5 5 4 6 7 8 8 8 10 17 24 27 28 29 30 31 33 33 33 34 36 36 37 37 38 38 38 38 38 37 37 37 36 35 35 34 33 31 29 26 25 24 24 25 25 25 25 25 24 24 24 25 25 25 25 25 25 23 21
2 2 2 3 2 5 3 1 1 0 1 2 2 3 3 2 1 2 2 2 3 4 2 3 0 2 6 9 9 11 11 9 9 10 10 11 15 20 23 25 26 27 29 32 34 35 37 40 41 40 40 40 39 39 39 38 39 38 38 37 36 35 34 32 30 28 26 25 25 25 25 26 26 26 25 25 26 26 26 25 25 25 24 23 22 20
1 2 3 3 1 6 6 3 2 1 3 4 3 3 3 2 2 3 2 2 3 2 2 4 2 4 6 8 11 13 13 12 15 16 14 14 16 18 20 22 23 26 29 32 35 38 40 41 42 42 42 42 41 40 39 39 39 39 38 37 36 35 33 31 29 27 26 26 26 26 26 26 26 26 26 26 26 26 25 26 26 26 25 24 23 21
2 3 3 3 2 7 7 3 3 2 2 5 3 1 1 1 2 3 2 3 4 4 2 3 1 4 4 5 7 9 7 9 16 19 15 11 13 17 20 21 23 26 28 31 35 37 39 40 41 41 41 41 41 40 39 39 39 39 38 37 35 34 32 31 29 27 27 26 26 26 26 27 27 27 27 26 25 25 26 27 27 27 26 25 23 22
3 4 2 1 2 7 4 1 3 2 1 3 1 3 1 2 3 3 3 4 2 3 3 2 2 5 5 10 12 9 6 4 7 12 13 10 12 15 19 23 25 27 29 31 34 36 38 38 39 40 40 40 39 39 39 39 38 38 37 36 34 33 32 31 29 28 27 27 27 27 27 27 26 26 26 25 25 26 27 27 26 25 23 22 21 20
2 3 2 1 1 3 1 2 2 2 0 0 1 1 2 2 0 1 4 3 2 2 4 3 4 5 4 11 11 3 4 4 4 7 10 12 13 15 20 24 26 28 29 31 33 35 37 38 39 39 39 39 39 39 38 38 38 37 36 35 34 33 32 31 29 28 27 27 28 27 27 26 26 26 25 25 26 27 27 26 24 23 21 21 20 20
1 3 3 2 1 1 0 3 4 5 3 2 1 2 2 2 1 0 2 2 0 4 4 4 7 6 3 6 4 4 2 5 5 6 8 10 12 15 22 26 27 28 28 30 31 33 35 36 37 38 38 38 39 38 38 37 37 36 35 34 33 33 32 31 29 28 28 28 28 27 26 25 25 25 25 26 27 27 26 25 23 22 21 20 21 21
1 2 2 1 1 1 2 2 4 6 5 2 1 2 1 0 1 2 2 2 3 5 4 4 7 6 5 7 6 3 6 8 8 8 7 8 12 19 25 28 27 27 28 30 32 33 34 35 36 37 37 38 38 38 38 37 37 36 35 34 33 32 31 30 29 29 28 28 26 26 25 25 25 25 25 26 27 25 24 23 21 20 20 21 21 22
1 1 2 2 1 2 2 2 2 3 2 2 4 3 1 1 2 3 2 1 2 4 5 4 5 5 6 7 9 10 10 9 9 8 8 10 17 23 26 28 28 29 32 34 34 34 35 35 35 36 37 38 38 38 38 37 37 35 35 34 33 32 31 30 29 29 28 27 25 24 24 25 24 24 25 25 25 24 22 21 20 20 20 20 20 21
1 2 2 2 2 1 2 4 6 6 4 3 1 3 3 2 0 1 2 2 3 3 4 5 6 8 7 5 7 10 9 8 9 8 8 12 19 24 25 26 29 31 34 36 36 36 35 35 36 36 37 38 38 38 38 37 36 35 34 34 33 33 32 31 30 29 27 26 25 24 24 25 24 23 25 24 23 23 20 19 20 19 19 19 19 19
2 2 3 2 2 4 5 5 4 4 5 6 6 5 6 5 3 1 4 4 3 3 4 5 7 10 7 4 6 9 7 7 9 8 8 12 18 21 23 24 27 29 32 35 37 36 35 36 36 37 38 38 39 39 39 38 36 36 35 34 33 33 32 31 30 28 27 26 26 25 24 24 23 23 25 22 21 22 19 19 20 18 17 17 17 17
1 0 3 5 7 7 4 2 2 1 1 2 4 5 6 6 6 5 5 3 2 3 4 3 7 12 8 3 6 9 8 8 11 10 9 13 17 19 21 23 24 26 29 32 34 35 35 36 37 37 39 39 40 40 39 38 37 36 35 34 34 34 33 31 29 28 27 27 26 25 23 23 23 23 23 21 20 21 20 20 19 16 16 17 16 16
1 1 3 5 8 5 1 3 3 2 2 2 4 5 5 6 8 6 4 1 1 3 5 3 7 10 6 1 3 4 4 6 9 10 11 14 17 19 20 22 22 23 25 28 31 33 34 35 36 38 40 41 42 41 40 39 38 36 36 35 35 35 33 31 30 29 28 27 25 24 22 23 23 23 22 20 19 21 22 19 17 15 16 16 15 15
3 2 3 2 6 5 2 1 1 1 1 3 5 5 7 8 6 2 1 1 2 9 10 6 9 11 4 3 4 4 3 3 6 10 13 16 19 21 21 21 22 23 23 25 28 31 33 35 38 41 42 43 43 42 41 40 39 37 37 36 36 35 34 32 30 29 28 26 24 22 21 22 23 23 22 20 21 23 21 17 16 16 16 15 15 15
3 2 3 3 5 7 7 6 3 2 3 3 4 6 9 11 10 5 2 4 6 12 11 7 10 14 9 0 3 2 2 5 8 12 16 18 20 23 22 22 22 23 24 25 27 29 32 36 39 42 43 43 43 43 42 41 39 38 37 37 37 35 34 33 31 29 27 24 22 21 22 23 24 23 21 21 23 23 19 17 17 17 16 15 16 16
1 3 6 8 10 10 12 10 4 2 3 4 5 8 10 11 13 9 4 7 8 7 9 11 13 16 19 12 6 6 6 6 7 9 11 14 17 20 22 23 23 23 25 26 26 28 31 35 38 40 42 43 43 43 42 40 39 38 38 38 37 36 34 33 31 28 25 23 22 22 22 23 24 23 22 23 23 20 18 18 18 17 17 17 17 16
1 5 9 12 16 17 17 16 10 5 7 10 8 8 9 9 11 11 12 15 8 1 10 17 13 14 19 15 10 10 9 8 8 8 12 16 17 19 21 22 22 23 24 25 26 28 31 35 38 40 41 42 42 42 41 40 39 38 38 38 37 36 34 32 30 26 23 22 22 23 23 22 23 23 24 24 21 19 18 19 19 18 18 18 17 17
2 6 7 9 16 20 17 17 16 12 12 13 12 12 12 10 12 16 21 22 11 6 15 20 15 15 17 13 12 12 11 12 14 17 21 22 21 21 21 19 19 21 23 25 27 30 33 35 37 39 41 41 41 41 40 39 39 38 37 37 37 35 33 31 28 26 23 22 22 23 23 22 23 25 24 22 19 19 20 20 19 19 19 18 17 17
2 5 6 6 12 18 16 14 14 13 13 16 16 16 17 17 17 18 21 21 16 15 20 20 20 22 19 13 12 16 18 20 22 23 21 20 20 19 19 19 20 21 23 27 30 32 33 35 37 38 39 40 41 41 41 40 39 38 37 37 37 35 32 30 28 25 24 23 22 23 23 23 24 24 23 21 20 21 21 20 20 20 19 18 18 18
5 2 1 2 6 16 15 10 10 12 14 16 16 15 17 17 16 17 19 18 16 16 20 21 20 20 16 11 11 17 22 20 16 15 16 19 20 18 18 21 22 23 24 26 30 33 33 34 35 37 39 40 41 42 42 40 39 38 37 36 37 35 31 29 27 25 25 23 22 23 24 24 24 23 21 21 22 22 21 21 21 20 19 19 18 19
6 2 2 2 3 12 10 4 6 8 9 13 15 16 18 16 14 16 16 13 12 14 16 15 13 11 10 9 9 12 13 11 10 14 17 21 22 20 20 22 23 24 26 26 27 30 32 33 35 37 39 41 42 42 42 41 39 38 37 36 36 34 30 28 27 25 25 24 23 24 24 23 23 22 22 23 23 22 22 22 21 21 20 19 19 19
5 3 2 2 3 11 7 3 5 8 8 11 11 10 13 14 13 13 11 10 10 10 9 9 8 7 7 8 9 10 10 9 12 17 21 24 26 27 25 25 27 29 29 26 25 26 28 31 34 37 39 40 41 42 42 40 39 37 36 36 35 32 30 28 27 25 25 25 25 24 22 22 23 23 23 23 23 23 23 22 22 21 20 19 20 20
5 5 4 2 4 11 9 5 8 8 10 9 3 3 3 3 4 6 8 8 4 1 2 4 5 8 11 10 11 12 13 15 20 25 28 28 30 31 32 33 33 31 26 22 22 24 26 29 32 35 37 38 39 40 39 38 37 36 35 34 33 31 29 28 27 26 26 25 24 23 22 23 24 24 24 24 24 23 23 23 22 21 20 20 20 21
5 5 3 3 4 7 7 5 5 6 8 5 6 9 7 6 9 8 7 6 10 11 10 11 11 12 12 13 16 18 21 26 30 31 30 31 31 31 32 32 29 24 21 21 23 25 27 29 30 32 34 35 36 37 37 36 35 34 34 33 32 30 29 28 27 26 26 25 24 23 23 24 25 25 25 24 24 24 23 23 22 21 21 21 21 22
5 4 2 2 3 3 3 3 5 6 7 8 7 9 9 8 10 10 5 7 13 13 12 13 13 12 14 19 24 25 29 32 31 29 29 27 25 26 26 25 26 26 26 26 27 29 30 30 30 31 32 33 34 35 35 35 34 34 33 33 32 31 29 28 27 26 25 24 23 23 24 24 25 25 25 25 24 24 24 23 22 22 22 22 22 23
3 4 3 3 4 3 4 6 6 8 10 8 5 8 10 7 7 8 4 3 10 15 14 13 14 15 18 23 28 30 31 27 20 20 24 22 24 32 35 33 32 33 33 32 32 33 32 30 29 29 30 31 32 33 33 33 33 32 32 32 32 31 29 28 27 26 25 24 23 24 24 24 25 25 25 25 24 24 23 23 22 22 22 23 23 23
1 3 3 4 4 3 4 5 6 7 5 3 7 11 13 13 10 8 5 2 7 19 22 17 15 17 19 22 27 30 26 17 9 11 19 26 34 42 43 41 41 39 37 36 36 35 33 31 29 29 29 29 29 30 30 31 30 30 31 31 31 30 29 28 27 26 25 24 23 23 23 24 25 25 25 25 24 23 23 23 23 23 23 23 23 24
4 3 2 3 5 4 3 5 5 5 1 5 10 13 17 22 18 10 5 2 8 25 32 24 20 22 22 23 27 25 16 10 6 12 26 38 44 45 43 43 43 41 39 37 35 33 33 31 29 28 28 28 28 28 28 29 29 29 29 29 29 29 28 27 26 25 24 23 23 23 24 24 25 25 24 24 23 23 23 23 23 23 23 24 24 24
3 2 2 4 7 6 5 6 5 2 1 7 12 14 21 26 18 8 4 4 13 29 35 28 24 26 26 28 26 17 9 9 11 22 39 48 48 45 42 40 41 41 39 36 34 33 32 31 29 29 28 28 27 27 27 27 27 27 28 28 28 28 27 26 24 23 23 22 22 23 24 25 25 24 24 23 23 23 23 23 23 23 23 24 24 25
2 2 4 5 7 6 6 7 5 1 2 8 15 19 24 22 10 2 3 8 17 28 33 30 28 27 27 27 22 15 15 22 28 37 46 47 44 43 41 39 40 40 38 37 35 35 33 32 31 29 27 27 26 25 25 25 26 27 27 27 27 27 25 23 22 22 23 23 23 24 25 24 24 24 23 23 23 23 23 23 23 23 24 24 25 26
1 1 2 4 4 5 6 6 6 2 5 16 22 21 20 12 2 3 10 17 22 26 28 29 29 28 28 27 25 24 29 36 40 43 43 41 40 42 42 41 40 39 38 38 38 37 35 33 32 30 28 27 25 25 24 24 25 26 26 26 25 24 22 21 22 22 22 23 23 24 24 24 23 23 23 23 23 23 23 23 24 24 24 25 26 27
3 2 2 2 2 2 3 4 4 2 8 25 26 17 13 8 5 10 18 23 26 25 25 28 29 29 30 30 31 34 37 40 42 42 41 40 41 42 43 43 42 40 40 39 38 37 36 33 33 31 29 27 25 24 24 24 25 25 25 24 22 21 20 21 21 22 22 23 24 24 23 23 23 22 22 23 23 23 23 24 24 25 25 26 27 27
5 3 3 4 3 3 3 3 3 3 9 22 21 11 9 11 15 19 21 24 28 28 26 27 30 33 34 34 36 38 40 41 42 41 41 42 43 44 45 45 43 41 40 39 39 38 35 33 32 30 29 27 25 24 24 24 25 24 23 21 20 20 20 20 21 21 22 23 24 23 23 22 22 22 22 22 23 23 24 24 25 25 25 26 27 28
6 6 6 6 4 6 5 5 5 9 15 24 24 16 13 16 22 26 26 25 27 28 28 30 34 37 39 39 38 38 39 40 42 43 44 44 45 46 46 45 44 42 40 40 40 38 35 33 31 29 28 26 25 24 25 24 24 22 21 20 20 19 20 20 20 21 22 23 23 22 22 21 21 22 22 23 23 24 24 25 26 26 26 27 28 29
7 12 10 6 6 10 7 4 9 16 24 32 31 21 17 21 26 30 29 28 27 28 30 32 34 37 39 39 38 38 39 42 44 45 45 46 46 46 47 47 46 43 41 41 40 38 35 32 29 29 27 25 25 25 24 24 23 21 20 20 19 19 19 20 21 21 22 23 22 22 22 21 21 22 23 23 24 25 24 25 26 26 26 27 28 29
10 17 13 7 9 11 8 7 15 23 30 33 28 22 24 28 31 31 30 29 30 31 32 33 34 35 36 36 36 37 40 43 44 45 45 45 45 46 48 49 47 45 42 40 38 36 34 31 29 28 27 26 26 24 22 22 21 20 20 19 19 19 20 20 21 21 22 23 22 22 22 21 21 22 23 24 25 25 25 26 26 27 27 28 28 29
12 17 13 9 10 10 8 12 24 32 33 26 19 22 29 34 36 37 33 31 31 32 33 34 33 34 35 35 35 36 39 41 42 42 43 45 45 46 48 48 47 45 42 39 35 33 31 28 27 26 25 26 25 22 20 19 19 19 19 19 19 19 20 21 21 22 23 23 23 22 21 21 22 23 24 25 26 26 26 26 26 27 28 28 28 28
12 12 10 10 11 8 8 16 26 28 24 20 21 27 32 35 38 39 37 35 34 34 34 33 33 33 34 34 35 36 38 40 41 41 42 44 45 46 47 46 45 43 40 36 32 29 27 25 23 23 23 23 22 20 18 17 17 18 18 19 19 20 20 21 21 22 23 23 23 22 22 22 22 23 24 25 26 25 25 25 26 28 29 28 27 27
10 9 9 10 9 7 9 18 23 17 13 22 34 39 38 37 36 36 38 39 38 37 35 34 35 37 36 34 33 34 35 38 40 41 42 43 43 44 45 44 42 39 36 32 28 25 22 21 20 20 19 19 19 18 17 17 17 18 18 19 20 20 21 22 22 22 23 23 23 22 22 22 22 23 24 25 25 25 25 26 26 28 29 28 27 26
10 8 9 9 8 10 16 23 24 18 18 28 38 41 41 40 38 38 40 40 39 39 37 33 34 38 40 39 38 35 35 37 40 40 41 42 42 42 41 39 37 36 32 28 23 20 18 17 16 15 16 17 17 17 16 17 17 18 18 19 19 20 21 21 21 22 22 23 22 22 22 22 22 23 24 25 25 25 26 27 27 27 27 27 27 27
Wind_Direction
7 247 204 24 13 32 22 15 9 338 317 309 316 313 298 292 292 82 112 146 44 304 258 247 261 267 263 268 240 199 198 208 213 211 210 209 209 211 211 214 217 219 222 220 218 221 223 224 225 224 223 223 223 224 222 221 222 220 221 222 215 211 215 216 216 218 216 216 222 226 232 239 244 249 254 258 261 262 263 266 268 271 273 275 276 277
38 256 60 51 21 28 13 0 359 331 320 313 310 302 294 293 295 73 101 167 110 73 270 267 274 275 266 267 259 214 195 208 213 209 211 210 211 214 214 216 218 220 219 215 213 213 216 219 220 221 222 222 220 219 219 218 219 218 217 218 214 210 212 214 216 217 218 219 226 233 237 243 249 254 260 266 270 272 273 274 276 278 279 280 280 281
199 127 76 60 21 8 11 11 349 321 311 295 286 281 287 320 325 44 89 168 144 150 263 281 284 281 276 268 262 242 221 218 214 211 213 210 210 214 215 216 216 216 213 209 208 208 210 215 218 220 221 221 219 218 218 218 217 215 213 213 212 212 213 214 216 219 223 226 230 236 241 247 251 255 258 261 266 271 276 279 281 284 284 284 284 284
222 100 83 55 354 313 185 57 315 295 274 252 254 264 280 12 8 256 172 248 240 228 247 302 307 283 279 270 263 249 239 233 218 215 218 214 214 216 216 218 215 212 210 207 206 206 209 213 217 220 221 220 219 218 217 216 215 213 211 211 212 213 214 215 218 222 227 232 235 240 245 250 255 259 262 264 267 270 273 276 278 281 282 283 283 284
129 100 75 20 288 330 342 272 262 282 274 221 206 268 260 5 326 248 302 313 292 254 230 292 303 273 269 263 266 243 231 229 208 204 215 218 220 222 220 220 217 215 213 208 206 206 210 215 219 222 221 220 219 218 217 214 213 212 211 212 213 214 217 220 223 226 229 234 240 247 252 257 261 264 266 268 270 271 273 273 273 275 276 278 280 283
117 147 148 243 225 331 313 272 189 247 289 236 107 344 346 338 304 290 315 318 309 290 206 179 291 283 285 269 276 241 202 209 187 189 209 216 219 223 221 220 218 217 216 213 210 210 215 219 221 222 219 219 219 217 216 214 213 213 213 214 214 216 219 224 229 232 235 238 242 248 254 260 264 266 267 269 270 271 271 272 273 275 277 279 282 285
124 151 206 296 244 255 265 266 147 138 288 288 285 341 7 342 310 291 303 306 290 293 230 173 213 282 299 281 267 237 194 201 185 191 212 214 218 221 221 221 218 216 215 214 212 213 217 218 220 220 218 218 219 216 214 214 214 214 215 216 218 219 222 227 232 236 241 244 246 251 255 259 261 265 269 270 271 271 270 271 272 273 275 279 283 285
134 149 207 258 245 248 240 251 184 137 230 260 261 325 355 294 276 272 286 264 256 289 256 186 189 276 286 272 253 215 195 210 208 213 218 216 220 221 221 221 218 215 213 211 211 212 214 216 220 222 219 219 218 216 214 214 216 217 217 219 221 223 226 229 234 238 243 246 251 254 255 256 259 264 267 267 267 269 269 269 269 268 269 273 279 284
199 172 202 199 212 237 224 147 85 108 147 210 266 278 262 260 263 269 274 262 267 297 283 211 170 250 270 267 261 189 184 216 221 217 215 216 220 221 222 221 219 216 213 211 210 210 211 215 220 222 222 220 218 216 216 216 218 220 222 223 225 228 230 232 235 239 244 248 251 252 252 254 258 262 265 267 268 270 270 270 271 271 272 275 279 283
281 178 201 179 206 228 127 77 45 56 154 279 300 258 253 256 255 252 245 271 281 274 273 237 159 194 276 267 249 175 208 228 227 221 213 214 219 221 222 221 221 218 215 213 212 210 210 212 216 218 219 220 218 218 220 220 220 223 225 227 229 231 233 234 237 241 245 247 247 247 250 254 259 263 266 268 269 271 272 273 275 277 279 281 283 285
105 55 10 221 210 127 109 107 30 35 117 310 298 267 267 242 217 230 221 247 286 261 267 241 157 173 293 268 214 191 217 215 215 226 217 213 216 219 221 221 220 220 217 216 215 213 211 211 213 213 215 217 218 219 221 223 223 225 228 230 231 233 235 237 240 243 243 242 242 246 251 256 260 263 265 267 268 271 273 276 278 279 281 282 282 282
142 188 202 181 174 127 108 155 172 61 31 311 288 288 302 270 189 227 208 192 245 251 253 99 74 217 251 261 238 220 236 216 204 213 211 208 211 214 219 220 219 219 218 217 216 214 211 211 211 211 213 217 219 220 221 223 225 227 229 231 233 235 237 240 240 240 238 239 243 249 253 257 259 261 263 265 269 272 274 276 278 278 278 277 274 269
199 210 140 105 171 176 162 158 169 293 204 218 256 266 292 302 279 242 207 195 221 232 194 149 81 271 242 256 258 259 262 240 214 211 205 205 209 211 214 216 217 217 217 215 212 210 209 209 210 211 214 217 220 221 221 223 225 227 230 231 233 235 237 237 236 234 236 241 246 250 254 256 259 261 265 268 272 274 276 277 277 275 272 268 262 257
292 304 143 119 223 196 187 188 193 195 176 193 222 221 235 289 297 267 254 255 252 247 188 168 199 271 269 266 248 249 257 239 223 219 210 207 212 216 215 213 213 213 214 213 210 210 210 211 212 213 216 219 221 222 222 223 225 227 228 230 231 233 233 231 231 232 237 243 247 250 254 257 261 264 267 271 274 275 276 275 273 270 265 259 255 251
267 293 193 170 164 178 192 208 165 125 181 208 203 134 212 246 235 244 261 263 277 295 248 163 173 238 249 265 231 222 236 233 223 216 209 210 213 216 216 214 215 214 212 212 212 213 214 214 216 217 219 221 222 222 222 223 224 225 226 228 228 228 228 228 229 233 238 243 247 251 255 258 261 265 268 272 275 276 276 275 273 269 264 259 255 249
223 248 187 91 124 163 185 203 136 99 286 233 106 72 154 225 220 238 279 270 283 314 275 196 217 227 241 279 271 241 215 193 191 193 193 201 205 206 211 216 220 219 216 216 216 217 218 218 220 222 222 223 222 222 222 222 222 222 223 224 225 225 226 227 230 234 239 245 249 252 255 258 261 266 271 275 278 279 279 277 273 268 262 257 252 247
243 250 138 88 226 182 188 18 146 190 275 81 82 146 234 251 193 249 288 309 69 278 258 203 243 270 280 285 288 260 190 171 151 175 189 198 200 204 214 220 225 225 223 222 222 223 223 223 224 225 225 224 223 222 221 221 220 220 221 222 222 223 225 227 232 237 241 245 250 253 255 260 266 272 277 280 282 282 281 276 268 262 255 249 244 238
212 261 202 176 250 220 201 343 289 251 219 133 184 238 288 323 24 117 274 316 326 255 250 193 234 263 257 272 310 73 172 223 215 209 208 205 203 213 225 229 231 230 229 228 228 227 227 227 226 226 225 224 222 221 219 218 217 217 219 222 224 225 226 230 234 238 242 246 250 254 259 266 272 277 280 282 283 281 275 269 262 257 251 245 241 235
56 287 244 238 320 156 166 295 284 248 215 168 275 289 8 260 244 172 197 257 246 259 269 229 242 247 212 241 275 265 233 237 231 219 213 214 214 222 233 238 237 235 234 232 231 230 229 229 227 225 222 220 218 218 216 216 216 217 219 222 225 227 229 232 235 239 243 247 251 258 264 271 274 278 281 282 281 276 269 263 258 253 248 245 242 241
80 190 254 311 353 123 167 224 212 210 173 49 337 300 158 181 231 199 183 213 220 260 281 267 264 255 220 227 254 257 248 240 229 216 214 220 221 228 238 243 240 238 238 236 233 232 231 229 226 223 221 218 216 215 215 215 216 218 221 224 226 228 231 234 236 241 245 249 255 261 267 273 276 280 283 282 277 270 263 258 252 248 247 246 246 246
143 169 230 305 357 101 200 205 199 193 162 135 223 225 193 187 342 302 269 201 191 245 271 266 267 260 237 207 228 248 246 227 215 210 219 227 230 239 248 249 245 242 241 239 235 233 231 228 224 221 218 216 215 215 215 217 219 221 224 226 228 231 233 235 238 242 248 253 257 263 268 274 279 282 283 280 272 266 260 254 250 248 248 248 247 247
196 195 246 252 251 245 225 202 199 197 175 175 188 193 195 183 134 312 263 223 191 224 238 249 265 267 258 204 226 253 240 211 217 216 224 240 247 255 260 258 253 248 244 242 238 234 231 227 223 219 217 216 216 217 217 219 221 224 226 228 231 233 235 237 240 244 250 255 259 264 270 275 280 281 281 276 266 261 256 251 252 251 249 248 246 245
118 267 270 260 254 251 237 146 100 38 284 223 215 198 183 173 170 197 233 226 193 230 240 256 267 271 271 205 213 242 235 229 241 237 238 255 262 266 268 266 262 256 251 245 238 234 231 227 223 219 218 218 218 219 220 222 224 226 228 230 232 235 236 238 242 245 249 254 260 266 271 277 280 279 278 272 260 256 253 251 254 252 247 247 246 244
116 209 242 268 270 257 190 104 97 42 1 261 246 213 185 194 198 198 218 210 166 234 231 249 263 267 288 318 208 212 201 224 241 239 245 259 265 267 267 268 266 261 256 247 238 235 230 226 222 220 220 220 221 222 222 224 226 227 229 232 234 236 238 239 242 245 249 254 260 267 272 277 279 277 274 267 254 250 252 254 255 249 244 245 246 245
170 211 199 270 294 284 292 324 303 325 229 224 237 214 209 216 197 156 307 204 251 250 232 234 263 262 273 31 53 84 119 217 239 243 251 258 264 268 267 266 265 261 255 246 239 234 229 226 225 224 224 223 223 224 225 226 228 229 231 234 236 236 237 239 242 245 250 255 261 267 273 276 277 274 269 258 248 248 253 255 251 247 246 244 244 246
191 234 195 215 269 269 268 275 270 224 194 213 230 212 216 214 195 191 245 202 231 252 240 224 249 262 267 345 63 53 222 239 246 247 253 258 263 268 269 264 259 255 251 248 242 236 233 231 229 226 226 225 225 225 226 227 228 230 233 235 236 237 237 239 242 245 250 256 261 267 273 275 274 271 262 251 246 249 252 249 246 247 246 242 243 244
269 257 228 230 241 243 252 257 246 137 183 225 226 211 213 213 203 201 221 224 225 250 260 241 235 259 273 276 285 280 258 261 267 261 267 273 273 275 275 269 260 254 252 249 244 239 235 232 229 228 227 226 226 226 227 228 229 232 235 236 236 235 236 239 243 245 250 257 263 268 271 274 272 267 256 249 249 250 247 244 244 245 244 243 243 244
288 255 232 233 241 246 255 263 269 286 275 268 263 240 227 215 201 199 219 232 221 163 266 255 241 249 265 275 287 288 292 303 307 309 311 308 305 300 292 277 261 252 249 246 241 238 236 234 231 229 228 226 226 226 227 229 231 234 237 238 236 235 236 240 243 246 251 257 263 268 272 273 267 259 253 251 251 247 242 241 242 242 242 244 245 246
232 265 230 222 248 255 258 265 274 284 280 272 271 263 252 230 207 209 226 235 226 215 250 262 269 266 268 282 290 294 310 314 307 307 308 307 307 306 302 288 268 255 247 243 242 241 240 238 235 231 229 228 227 227 228 229 232 234 237 238 237 235 236 241 244 248 252 257 263 269 272 269 259 253 253 252 247 242 241 241 242 243 243 244 246 248
190 273 242 222 262 267 261 262 269 272 271 267 261 255 252 245 231 226 236 242 237 237 250 264 273 271 273 283 291 299 304 299 295 298 301 305 305 302 300 293 282 271 260 250 247 247 246 244 241 236 233 231 230 230 230 231 233 235 236 237 237 235 235 239 244 249 254 258 263 269 271 264 255 252 251 247 242 241 241 242 242 243 245 245 246 248
196 234 267 165 271 277 271 262 255 251 255 261 261 254 251 252 248 242 244 245 241 243 251 256 262 269 278 289 292 293 293 292 296 303 311 316 313 306 300 296 290 285 277 266 256 250 249 248 245 240 237 236 235 234 233 233 234 235 237 238 237 236 236 239 243 250 256 260 264 267 267 262 256 250 245 240 240 241 241 242 242 244 245 246 247 249
203 235 344 104 259 281 284 289 278 273 268 265 264 258 250 248 246 244 243 242 237 241 251 258 263 266 278 295 293 288 298 314 326 325 324 322 318 312 303 298 296 291 286 279 268 257 252 251 248 246 245 243 239 237 236 235 235 235 237 238 237 236 238 241 245 251 257 262 266 267 264 258 252 246 241 239 239 240 241 242 243 244 246 247 249 252
188 225 262 146 234 274 283 18 355 327 305 278 263 252 248 247 247 249 257 258 241 231 241 254 260 273 298 321 324 324 337 344 335 332 332 327 322 316 306 300 298 293 287 283 279 273 264 261 258 255 252 247 243 241 240 238 237 238 240 239 237 237 239 243 247 252 258 263 266 266 260 251 245 241 239 239 239 240 242 243 244 246 248 250 252 254
190 209 251 207 243 272 285 1 4 321 287 281 318 27 320 303 309 291 290 300 297 272 294 290 312 340 346 346 343 339 338 335 331 330 328 324 317 309 302 299 297 293 290 289 290 291 288 279 269 260 253 248 245 243 240 238 239 240 240 239 238 239 241 245 248 253 259 263 264 261 253 245 240 239 239 239 240 241 242 244 245 247 249 251 254 256
191 200 242 234 246 280 299 341 333 272 265 298 31 31 16 34 28 345 310 357 27 26 13 4 357 353 348 343 340 337 332 329 326 323 322 320 312 303 300 304 308 308 306 304 304 307 306 295 278 263 254 249 244 240 238 237 238 239 239 240 240 240 242 246 250 255 259 262 261 256 248 242 239 238 238 239 240 241 243 245 247 249 251 253 255 257
194 192 215 232 245 282 285 249 235 255 311 346 25 30 19 24 14 350 342 50 40 28 18 6 349 341 344 341 338 336 332 327 321 320 324 326 324 322 322 325 329 325 316 312 311 311 310 302 285 271 261 252 245 241 239 239 240 240 239 240 241 242 244 247 251 256 259 260 259 254 246 241 238 238 238 239 240 242 244 247 248 250 251 253 255 258
184 188 215 242 234 237 242 243 259 293 319 338 8 15 8 358 341 332 316 65 44 27 11 356 344 344 346 341 336 335 333 327 319 321 330 335 338 337 333 329 325 320 314 312 310 310 309 301 286 271 261 254 248 245 242 241 241 241 241 242 243 244 245 248 252 257 260 261 258 252 245 240 238 238 238 239 241 243 245 248 250 251 253 254 257 260
302 217 233 249 240 249 259 256 279 290 290 2 358 344 347 342 321 308 286 236 36 16 1 353 348 344 341 337 336 337 335 328 313 319 332 334 331 328 324 319 317 314 311 308 308 309 306 296 283 270 260 254 249 245 243 242 242 243 243 245 245 244 246 250 255 260 263 262 257 249 243 240 238 238 239 240 242 244 246 249 250 252 255 257 259 262
324 294 288 281 265 271 268 252 266 268 241 25 354 338 346 343 328 312 289 255 7 358 353 351 345 338 337 335 335 336 334 322 308 318 326 326 323 320 318 315 313 311 307 304 304 306 302 292 280 269 258 250 245 243 242 243 244 245 245 245 245 245 248 254 260 265 266 262 255 247 242 240 239 240 241 242 244 245 248 251 253 255 257 260 263 265
298 267 235 245 250 256 257 256 272 260 80 10 354 347 343 334 322 309 291 317 353 347 344 344 336 331 334 333 332 334 324 312 314 314 315 316 315 314 314 313 314 312 307 303 304 305 300 289 277 266 256 249 245 245 246 246 246 246 246 245 245 247 253 260 265 267 265 258 250 244 241 240 240 241 243 244 245 248 250 253 256 258 260 263 265 267
197 212 226 227 241 259 250 250 276 245 97 9 356 354 346 330 313 312 324 332 342 335 331 333 328 325 330 328 325 322 310 308 309 308 310 311 312 313 313 313 314 312 305 302 304 304 299 288 275 264 254 249 248 248 250 249 248 247 245 244 247 251 259 265 266 263 259 252 246 243 241 240 241 242 244 245 247 250 253 255 258 260 262 265 267 269
97 216 241 223 237 260 247 253 273 229 59 16 358 357 5 358 321 357 338 330 331 325 321 324 322 321 324 322 317 314 309 308 309 309 311 313 313 314 314 313 314 312 303 299 300 301 297 285 272 260 251 248 249 251 252 250 248 246 245 245 251 258 262 265 263 259 254 248 245 242 241 242 243 243 245 247 249 252 255 257 259 261 263 266 268 270
14 321 303 301 281 271 258 278 283 236 20 14 4 359 14 14 330 338 337 327 326 324 319 321 320 320 321 318 315 313 311 309 310 311 312 313 313 315 316 314 313 312 305 299 298 299 295 283 270 259 251 250 252 252 252 250 246 245 246 250 257 261 263 264 262 257 251 246 244 243 243 244 245 246 247 249 251 254 256 258 260 262 264 267 269 272
33 18 328 318 3 16 298 312 355 323 357 11 6 342 329 334 337 344 339 325 324 326 325 324 322 321 321 319 316 314 312 311 311 311 312 313 313 316 317 315 313 312 308 303 299 298 292 280 269 258 252 254 256 255 253 250 246 246 249 255 260 262 264 265 262 255 250 247 246 246 245 246 247 248 250 251 253 255 257 259 262 264 266 269 271 274
41 17 317 289 351 353 286 268 335 342 352 357 348 331 331 343 345 343 335 324 323 326 327 325 321 320 321 319 316 314 312 310 311 311 312 312 312 315 318 317 314 312 310 305 301 296 289 280 267 256 253 256 258 256 254 249 246 249 254 259 262 265 268 267 262 255 251 248 248 249 248 249 250 251 252 253 255 257 259 261 263 265 267 271 273 275
19 7 340 309 342 336 300 292 347 352 349 342 333 333 348 348 341 336 330 324 322 322 322 321 318 318 319 318 317 316 313 312 313 312 312 312 311 314 317 317 315 312 310 307 302 295 288 279 266 255 254 257 257 255 252 248 248 252 257 260 265 268 269 267 261 256 252 250 250 251 250 251 253 253 255 256 257 260 261 262 265 267 269 272 275 277
2 6 356 338 345 336 318 347 358 347 336 328 325 335 343 337 333 331 325 320 319 318 318 318 317 318 319 318 318 316 314 314 314 314 314 313 312 314 316 316 315 313 311 309 303 294 286 278 267 259 256 258 258 255 252 250 251 254 258 262 267 269 269 266 260 255 253 252 252 252 252 253 254 255 257 259 260 262 263 264 267 269 271 274 278 281
344 356 353 340 340 328 309 333 339 329 320 317 326 338 336 331 328 326 322 319 318 318 318 319 319 320 320 318 318 316 314 314 314 315 314 314 314 314 315 315 315 314 313 311 304 293 285 279 271 264 261 261 262 259 256 255 255 256 260 264 268 270 269 265 260 255 254 254 253 253 253 253 255 257 259 261 263 264 266 267 269 271 273 276 279 282
336 344 344 330 324 314 310 331 334 325 314 315 329 332 330 328 325 322 321 321 320 319 320 319 319 321 320 318 318 318 316 315 316 317 316 314 314 315 315 316 316 315 314 311 304 294 287 281 275 269 266 266 265 263 260 259 258 261 264 266 269 271 268 263 259 255 254 255 255 255 255 255 256 259 261 263 266 267 269 270 271 273 275 278 280 283
347 345 343 334 327 325 325 329 331 326 313 320 325 326 327 328 325 322 322 322 321 321 322 321 321 322 321 319 319 319 317 317 320 321 319 317 316 317 318 318 318 317 315 312 304 296 291 286 281 276 272 268 267 265 264 265 266 267 268 270 272 271 267 263 259 255 254 256 256 257 258 258 259 261 263 265 268 270 271 272 273 276 279 282 283 284
352 345 337 325 312 309 311 317 323 322 311 315 319 321 324 327 327 325 323 321 321 321 321 322 323 323 322 321 322 321 320 320 323 324 322 321 320 320 321 321 320 319 317 313 307 303 301 297 292 286 278 272 271 271 272 274 275 273 272 273 272 269 265 261 258 256 255 256 258 259 259 261 262 263 266 268 270 271 273 274 276 277 280 284 286 287